EW8836 Weather Reports


Display with metric or nautical units.
time (UTC)temp
F
wind
direction
speed
MPH
gust
MPH
rain 1hr
in
rain 24hr
in
rain mn
in
humidity
%
barometer
mb
20260906010058 60 190 0.0 0.0 0.00 0.00 0.00 91 1022.3
20260906004549 60 190 0.0 0.0 0.00 0.00 0.00 90 1022.5
20260906003056 60 123 0.0 0.0 0.00 0.00 0.00 90 1022.6
20260906001554 61 123 0.0 0.0 0.00 0.00 0.00 89 1022.8
20260906000055 61 122 0.0 0.0 0.00 0.00 0.00 89 1022.7
20260905234550 61 123 0.0 0.0 0.00 0.00 0.00 88 1022.8
20260905233102 61 123 0.0 0.0 0.00 0.00 0.00 89 1022.8
20260905231558 61 123 0.0 0.0 0.00 0.00 0.00 89 1022.8
20260905230046 62 123 0.0 0.0 0.00 0.00 0.00 89 1022.9
20260905224604 62 123 0.0 0.0 0.00 0.00 0.00 88 1023.0
20260905223055 63 123 0.0 0.0 0.00 0.00 0.00 87 1022.9
20260905221549 63 123 0.0 0.0 0.00 0.00 0.00 87 1023.0
20260905220058 63 122 0.0 0.0 0.00 0.00 0.00 86 1022.8
20260905214601 64 112 0.0 0.0 0.00 0.00 0.00 85 1022.8
20260905213110 65 112 0.0 0.0 0.00 0.00 0.00 84 1022.9
20260905211612 66 112 0.0 0.0 0.00 0.00 0.00 82 1023.1
20260905210111 67 8 0.0 0.0 0.00 0.00 0.00 81 1023.1
20260905204606 67 8 0.0 0.0 0.00 0.00 0.00 80 1023.2
20260905203051 68 8 0.0 1.0 0.00 0.00 0.00 79 1023.2
20260905201600 67 8 0.0 0.0 0.00 0.00 0.00 80 1023.1
20260905200057 68 8 0.0 0.0 0.00 0.00 0.00 78 1023.1
20260905194556 68 8 0.0 0.0 0.00 0.00 0.00 78 1022.9
20260905193103 68 8 0.0 0.0 0.00 0.00 0.00 77 1022.7
20260905191547 70 8 0.0 0.0 0.00 0.00 0.00 74 1022.5
20260905184555 73 47 0.0 1.0 0.00 0.00 0.00 70 1022.4
20260905183118 74 53 0.0 1.0 0.00 0.00 0.00 68 1022.4
20260905181548 75 54 0.0 2.0 0.00 0.00 0.00 66 1022.3
20260905180108 77 65 0.0 3.0 0.00 0.00 0.00 64 1022.2
20260905174553 78 49 0.0 2.0 0.00 0.00 0.00 62 1022.3
20260905173110 79 68 0.0 3.0 0.00 0.00 0.00 61 1022.2
20260905171556 80 53 0.0 3.0 0.00 0.00 0.00 60 1022.1
20260905170100 81 23 1.0 3.0 0.00 0.00 0.00 58 1022.2
20260905164631 82 273 0.0 2.0 0.00 0.00 0.00 58 1022.3
20260905163051 82 1 0.0 1.0 0.00 0.00 0.00 57 1022.4
20260905161603 83 37 0.0 3.0 0.00 0.00 0.00 57 1022.3
20260905160104 82 6 0.0 4.0 0.00 0.00 0.00 58 1022.2
20260905154548 82 184 0.0 6.0 0.00 0.00 0.00 58 1022.2
20260905153106 81 67 2.0 7.0 0.00 0.00 0.00 59 1022.3
20260905151543 82 41 2.0 6.0 0.00 0.00 0.00 58 1022.4
20260905150055 82 60 1.0 4.0 0.00 0.00 0.00 59 1022.6
20260905144558 82 84 1.0 4.0 0.00 0.00 0.00 57 1022.6
20260905143106 83 312 1.0 4.0 0.00 0.00 0.00 57 1022.6
20260905141604 82 63 1.0 5.0 0.00 0.00 0.00 58 1022.6
20260905140055 83 360 1.0 5.0 0.00 0.00 0.00 57 1022.5
20260905134556 82 46 2.0 6.0 0.00 0.00 0.00 58 1022.6
20260905133053 79 84 0.0 9.0 0.00 0.00 0.00 62 1022.7
20260905131618 82 43 1.0 6.0 0.00 0.00 0.00 59 1022.7
20260905130054 83 65 0.0 6.0 0.00 0.00 0.00 57 1022.9
20260905124553 81 312 0.0 4.0 0.00 0.00 0.00 62 1022.8
20260905123051 80 57 1.0 5.0 0.00 0.00 0.00 62 1023.0
20260905121552 81 354 1.0 5.0 0.00 0.00 0.00 63 1023.0
20260905120133 80 58 2.0 7.0 0.00 0.00 0.00 63 1023.0
20260905114556 79 39 0.0 4.0 0.00 0.00 0.00 64 1023.1
20260905113058 79 51 1.0 4.0 0.00 0.00 0.00 65 1023.2
20260905111600 80 46 1.0 7.0 0.00 0.00 0.00 66 1023.2
20260905110107 80 270 0.0 5.0 0.00 0.00 0.00 66 1023.1
20260905104558 79 186 0.0 3.0 0.00 0.00 0.00 66 1023.1
20260905103055 77 328 0.0 3.0 0.00 0.00 0.00 67 1023.1
20260905101546 77 56 1.0 5.0 0.00 0.00 0.00 67 1023.2
20260905100118 77 72 1.0 4.0 0.00 0.00 0.00 66 1023.1
20260905094603 76 63 1.0 7.0 0.00 0.00 0.00 67 1023.1
20260905093100 76 74 0.0 3.0 0.00 0.00 0.00 68 1022.9
20260905091612 76 131 0.0 3.0 0.00 0.00 0.00 67 1022.9
20260905090111 74 344 0.0 2.0 0.00 0.00 0.00 69 1022.8
20260905084600 73 348 0.0 3.0 0.00 0.00 0.00 69 1022.7
20260905083056 74 149 0.0 1.0 0.00 0.00 0.00 67 1022.7
20260905081605 73 325 0.0 1.0 0.00 0.00 0.00 69 1022.9
20260905080057 71 245 0.0 1.0 0.00 0.00 0.00 72 1022.8
20260905074608 69 252 0.0 1.0 0.00 0.00 0.00 72 1022.8
20260905073052 66 225 0.0 1.0 0.00 0.00 0.00 74 1022.7
20260905071555 65 200 0.0 3.0 0.00 0.00 0.00 76 1022.5
20260905070101 62 231 0.0 4.0 0.00 0.00 0.00 80 1022.4
20260905064545 61 236 0.0 1.0 0.00 0.00 0.00 81 1022.2
20260905063106 60 236 0.0 4.0 0.00 0.00 0.00 83 1022.2
20260905061556 58 222 0.0 1.0 0.00 0.00 0.00 86 1022.2
20260905060056 57 223 0.0 4.0 0.00 0.00 0.00 86 1022.0
20260905054600 57 238 0.0 2.0 0.00 0.00 0.00 87 1021.9
20260905053057 56 207 0.0 1.0 0.00 0.00 0.00 86 1021.5
20260905051548 57 193 0.0 3.0 0.00 0.00 0.00 86 1021.3
20260905050109 57 216 0.0 2.0 0.00 0.00 0.00 85 1021.1
20260905044553 56 228 1.0 6.0 0.00 0.00 0.00 86 1021.1
20260905043053 56 234 0.0 2.0 0.00 0.00 0.00 87 1021.1
20260905041602 56 200 0.0 2.0 0.00 0.00 0.00 86 1021.2
20260905040104 56 241 0.0 1.0 0.00 0.00 0.00 86 1021.2
20260905034553 57 260 0.0 1.0 0.00 0.00 0.00 85 1021.0
20260905033053 58 217 0.0 2.0 0.00 0.00 0.00 83 1021.0
20260905031609 58 248 0.0 3.0 0.00 0.00 0.00 83 1020.9
20260905030049 58 233 0.0 2.0 0.00 0.00 0.00 84 1021.0
20260905024603 58 224 0.0 4.0 0.00 0.00 0.00 83 1020.8
20260905023053 58 258 0.0 2.0 0.00 0.00 0.00 83 1020.7
20260905021601 58 275 0.0 1.0 0.00 0.00 0.00 83 1020.7
20260905020051 58 269 0.0 1.0 0.00 0.00 0.00 83 1020.7
20260905014553 58 199 0.0 3.0 0.00 0.00 0.00 83 1020.5
20260905013049 58 242 0.0 5.0 0.00 0.00 0.00 83 1020.5
20260905011553 58 171 0.0 1.0 0.00 0.00 0.00 82 1020.4